Tracking 28081 objects as of 27-Sep-2023
HD Live streaming from Space Station
objects crossing your sky now

STARLINK-3366

Track STARLINK-3366 now!
10-day predictions
STARLINK-3366 is classified as:


NORAD ID: 51104
Int'l Code: 2022-005A
Perigee: 545.9 km
Apogee: 547.7 km
Inclination: 53.2 °
Period: 95.4 minutes
Semi major axis: 6917 km
RCS: Unknown
Launch date: January 19, 2022
Source: United States (US)
Launch site: AIR FORCE EASTERN TEST RANGE (AFETR)
Your satellite tracking list
Your tracking list is empty




NASA's NSSDC Master Catalog

Two Line Element Set (TLE):
1 51104U 22005A   23269.50496602  .00029516  00000-0  18635-2 0  9992
2 51104  53.2177 347.7671 0001365  76.6714 283.4430 15.08867403 93737
Source of the keplerian elements: AFSPC